Voltar ao catálogo

STARLINK-36940

AtivoComunicaçõesSSO
NORAD 68027·PAYLOAD·🇺🇸 United States

Lançado Mar 1, 2026 de Vandenberg Space Force Base

Loading…

Próximas Passagens (próximas 24 horas)

TLE

AtualizadoSource: CelesTrak SupGP

Época: Sep 15, 2026, 02:58 UTC

1 68027C 26040N   26258.12409722  .00029621  00000+0  91973-3 0  2584
2 68027  97.2853 205.6077 0001720  88.6206  81.3818 15.33416292    12

Acompanhe STARLINK-36940 em tempo real com AllMySat

Download on the App Store